owner,sensor,date,latitude,longitude,vertical_datum,sea_water_temperature,qcFlag 
COMPS,ioos:station:USF.COMPS:ANC:1,2010-03-01T00:00:00Z,28.1930,-82.7890,-1.0,16.33,2 
COMPS,ioos:station:USF.COMPS:ANC:1,2010-03-01T00:06:00Z,28.1930,-82.7890,-1.0,16.36,2 
COMPS,ioos:station:USF.COMPS:ANC:1,2010-03-01T00:12:00Z,28.1930,-82.7890,-1.0,16.41,2 
COMPS,ioos:station:USF.COMPS:ANC:1,2010-03-01T00:18:00Z,28.1930,-82.7890,-1.0,16.4,2 
COMPS,ioos:station:USF.COMPS:ANC:1,2010-03-01T00:24:00Z,28.1930,-82.7890,-1.0,16.41,2 
COMPS,ioos:station:USF.COMPS:ANC:1,2010-03-01T00:30:00Z,28.1930,-82.7890,-1.0,16.43,2 
COMPS,ioos:station:USF.COMPS:ANC:1,2010-03-01T00:36:00Z,28.1930,-82.7890,-1.0,16.44,2 
COMPS,ioos:station:USF.COMPS:ANC:1,2010-03-01T00:42:00Z,28.1930,-82.7890,-1.0,16.44,2 
COMPS,ioos:station:USF.COMPS:ANC:1,2010-03-01T00:48:00Z,28.1930,-82.7890,-1.0,16.45,2 
COMPS,ioos:station:USF.COMPS:ANC:1,2010-03-01T00:54:00Z,28.1930,-82.7890,-1.0,16.47,2 
COMPS,ioos:station:USF.COMPS:ANC:1,2010-03-01T01:00:00Z,28.1930,-82.7890,-1.0,16.49,2 
COMPS,ioos:station:USF.COMPS:ANC:1,2010-03-01T01:06:00Z,28.1930,-82.7890,-1.0,16.51,2 
COMPS,ioos:station:USF.COMPS:ANC:1,2010-03-01T01:12:00Z,28.1930,-82.7890,-1.0,16.54,2 
COMPS,ioos:station:USF.COMPS:ANC:1,2010-03-01T01:18:00Z,28.1930,-82.7890,-1.0,16.58,2 
COMPS,ioos:station:USF.COMPS:ANC:1,2010-03-01T01:24:00Z,28.1930,-82.7890,-1.0,16.62,2 
COMPS,ioos:station:USF.COMPS:ANC:1,2010-03-01T01:30:00Z,28.1930,-82.7890,-1.0,16.67,2 
COMPS,ioos:station:USF.COMPS:ANC:1,2010-03-01T01:36:00Z,28.1930,-82.7890,-1.0,16.73,2 
COMPS,ioos:station:USF.COMPS:ANC:1,2010-03-01T01:42:00Z,28.1930,-82.7890,-1.0,16.77,2 
COMPS,ioos:station:USF.COMPS:ANC:1,2010-03-01T01:48:00Z,28.1930,-82.7890,-1.0,16.82,2 
COMPS,ioos:station:USF.COMPS:ANC:1,2010-03-01T01:54:00Z,28.1930,-82.7890,-1.0,16.87,2 
COMPS,ioos:station:USF.COMPS:ANC:1,2010-03-01T02:00:00Z,28.1930,-82.7890,-1.0,16.89,2 
COMPS,ioos:station:USF.COMPS:ANC:1,2010-03-01T02:06:00Z,28.1930,-82.7890,-1.0,16.93,2 
COMPS,ioos:station:USF.COMPS:ANC:1,2010-03-01T02:12:00Z,28.1930,-82.7890,-1.0,16.94,2 
COMPS,ioos:station:USF.COMPS:ANC:1,2010-03-01T02:18:00Z,28.1930,-82.7890,-1.0,16.96,2 
COMPS,ioos:station:USF.COMPS:ANC:1,2010-03-01T02:24:00Z,28.1930,-82.7890,-1.0,17.0,2 
COMPS,ioos:station:USF.COMPS:ANC:1,2010-03-01T02:30:00Z,28.1930,-82.7890,-1.0,17.02,2 
COMPS,ioos:station:USF.COMPS:ANC:1,2010-03-01T02:36:00Z,28.1930,-82.7890,-1.0,17.03,2 
COMPS,ioos:station:USF.COMPS:ANC:1,2010-03-01T02:42:00Z,28.1930,-82.7890,-1.0,17.01,2 
COMPS,ioos:station:USF.COMPS:ANC:1,2010-03-01T02:48:00Z,28.1930,-82.7890,-1.0,17.01,2 
COMPS,ioos:station:USF.COMPS:ANC:1,2010-03-01T02:54:00Z,28.1930,-82.7890,-1.0,16.99,2 
COMPS,ioos:station:USF.COMPS:ANC:1,2010-03-01T03:00:00Z,28.1930,-82.7890,-1.0,16.97,2 
COMPS,ioos:station:USF.COMPS:ANC:1,2010-03-01T03:06:00Z,28.1930,-82.7890,-1.0,16.94,2 
COMPS,ioos:station:USF.COMPS:ANC:1,2010-03-01T03:12:00Z,28.1930,-82.7890,-1.0,16.93,2 
COMPS,ioos:station:USF.COMPS:ANC:1,2010-03-01T03:18:00Z,28.1930,-82.7890,-1.0,16.93,2 
COMPS,ioos:station:USF.COMPS:ANC:1,2010-03-01T03:24:00Z,28.1930,-82.7890,-1.0,16.96,2 
COMPS,ioos:station:USF.COMPS:ANC:1,2010-03-01T03:30:00Z,28.1930,-82.7890,-1.0,17.05,2 
COMPS,ioos:station:USF.COMPS:ANC:1,2010-03-01T03:36:00Z,28.1930,-82.7890,-1.0,17.15,2 
COMPS,ioos:station:USF.COMPS:ANC:1,2010-03-01T03:42:00Z,28.1930,-82.7890,-1.0,17.23,2 
COMPS,ioos:station:USF.COMPS:ANC:1,2010-03-01T03:48:00Z,28.1930,-82.7890,-1.0,17.23,2 
COMPS,ioos:station:USF.COMPS:ANC:1,2010-03-01T03:54:00Z,28.1930,-82.7890,-1.0,17.18,2 
COMPS,ioos:station:USF.COMPS:ANC:1,2010-03-01T04:00:00Z,28.1930,-82.7890,-1.0,17.11,2 
COMPS,ioos:station:USF.COMPS:ANC:1,2010-03-01T04:06:00Z,28.1930,-82.7890,-1.0,17.04,2 
COMPS,ioos:station:USF.COMPS:ANC:1,2010-03-01T04:12:00Z,28.1930,-82.7890,-1.0,16.99,2 
COMPS,ioos:station:USF.COMPS:ANC:1,2010-03-01T04:18:00Z,28.1930,-82.7890,-1.0,16.97,2 
COMPS,ioos:station:USF.COMPS:ANC:1,2010-03-01T04:24:00Z,28.1930,-82.7890,-1.0,16.95,2 
COMPS,ioos:station:USF.COMPS:ANC:1,2010-03-01T04:30:00Z,28.1930,-82.7890,-1.0,16.92,2 
COMPS,ioos:station:USF.COMPS:ANC:1,2010-03-01T04:36:00Z,28.1930,-82.7890,-1.0,16.89,2 
COMPS,ioos:station:USF.COMPS:ANC:1,2010-03-01T04:42:00Z,28.1930,-82.7890,-1.0,16.84,2 
COMPS,ioos:station:USF.COMPS:ANC:1,2010-03-01T04:48:00Z,28.1930,-82.7890,-1.0,16.81,2 
COMPS,ioos:station:USF.COMPS:ANC:1,2010-03-01T04:54:00Z,28.1930,-82.7890,-1.0,16.78,2 
COMPS,ioos:station:USF.COMPS:ANC:1,2010-03-01T05:00:00Z,28.1930,-82.7890,-1.0,16.78,2 
COMPS,ioos:station:USF.COMPS:ANC:1,2010-03-01T05:06:00Z,28.1930,-82.7890,-1.0,16.78,2 
COMPS,ioos:station:USF.COMPS:ANC:1,2010-03-01T05:12:00Z,28.1930,-82.7890,-1.0,16.77,2 
COMPS,ioos:station:USF.COMPS:ANC:1,2010-03-01T05:18:00Z,28.1930,-82.7890,-1.0,16.75,2 
COMPS,ioos:station:USF.COMPS:ANC:1,2010-03-01T05:24:00Z,28.1930,-82.7890,-1.0,16.73,2 
COMPS,ioos:station:USF.COMPS:ANC:1,2010-03-01T05:30:00Z,28.1930,-82.7890,-1.0,16.71,2 
COMPS,ioos:station:USF.COMPS:ANC:1,2010-03-01T05:36:00Z,28.1930,-82.7890,-1.0,16.69,2 
COMPS,ioos:station:USF.COMPS:ANC:1,2010-03-01T05:42:00Z,28.1930,-82.7890,-1.0,16.66,2 
COMPS,ioos:station:USF.COMPS:ANC:1,2010-03-01T05:48:00Z,28.1930,-82.7890,-1.0,16.64,2 
COMPS,ioos:station:USF.COMPS:ANC:1,2010-03-01T05:54:00Z,28.1930,-82.7890,-1.0,16.62,2 
COMPS,ioos:station:USF.COMPS:ANC:1,2010-03-01T06:00:00Z,28.1930,-82.7890,-1.0,16.61,2 
COMPS,ioos:station:USF.COMPS:ANC:1,2010-03-01T06:06:00Z,28.1930,-82.7890,-1.0,16.6,2 
COMPS,ioos:station:USF.COMPS:ANC:1,2010-03-01T06:12:00Z,28.1930,-82.7890,-1.0,16.59,2 
COMPS,ioos:station:USF.COMPS:ANC:1,2010-03-01T06:18:00Z,28.1930,-82.7890,-1.0,16.57,2 
COMPS,ioos:station:USF.COMPS:ANC:1,2010-03-01T06:24:00Z,28.1930,-82.7890,-1.0,16.56,2 
COMPS,ioos:station:USF.COMPS:ANC:1,2010-03-01T06:30:00Z,28.1930,-82.7890,-1.0,16.54,2 
COMPS,ioos:station:USF.COMPS:ANC:1,2010-03-01T06:36:00Z,28.1930,-82.7890,-1.0,16.54,2 
COMPS,ioos:station:USF.COMPS:ANC:1,2010-03-01T06:42:00Z,28.1930,-82.7890,-1.0,16.54,2 
COMPS,ioos:station:USF.COMPS:ANC:1,2010-03-01T06:48:00Z,28.1930,-82.7890,-1.0,16.54,2 
COMPS,ioos:station:USF.COMPS:ANC:1,2010-03-01T06:54:00Z,28.1930,-82.7890,-1.0,16.53,2 
COMPS,ioos:station:USF.COMPS:ANC:1,2010-03-01T07:00:00Z,28.1930,-82.7890,-1.0,16.52,2 
COMPS,ioos:station:USF.COMPS:ANC:1,2010-03-01T07:06:00Z,28.1930,-82.7890,-1.0,16.52,2 
COMPS,ioos:station:USF.COMPS:ANC:1,2010-03-01T07:12:00Z,28.1930,-82.7890,-1.0,16.52,2 
COMPS,ioos:station:USF.COMPS:ANC:1,2010-03-01T07:18:00Z,28.1930,-82.7890,-1.0,16.51,2 
COMPS,ioos:station:USF.COMPS:ANC:1,2010-03-01T07:24:00Z,28.1930,-82.7890,-1.0,16.51,2 
COMPS,ioos:station:USF.COMPS:ANC:1,2010-03-01T07:30:00Z,28.1930,-82.7890,-1.0,16.51,2 
COMPS,ioos:station:USF.COMPS:ANC:1,2010-03-01T07:36:00Z,28.1930,-82.7890,-1.0,16.49,2 
COMPS,ioos:station:USF.COMPS:ANC:1,2010-03-01T07:42:00Z,28.1930,-82.7890,-1.0,16.48,2 
COMPS,ioos:station:USF.COMPS:ANC:1,2010-03-01T07:48:00Z,28.1930,-82.7890,-1.0,16.46,2 
COMPS,ioos:station:USF.COMPS:ANC:1,2010-03-01T07:54:00Z,28.1930,-82.7890,-1.0,16.45,2 
COMPS,ioos:station:USF.COMPS:ANC:1,2010-03-01T08:00:00Z,28.1930,-82.7890,-1.0,16.43,2 
COMPS,ioos:station:USF.COMPS:ANC:1,2010-03-01T08:06:00Z,28.1930,-82.7890,-1.0,16.42,2 
COMPS,ioos:station:USF.COMPS:ANC:1,2010-03-01T08:12:00Z,28.1930,-82.7890,-1.0,16.39,2 
COMPS,ioos:station:USF.COMPS:ANC:1,2010-03-01T08:18:00Z,28.1930,-82.7890,-1.0,16.37,2 
COMPS,ioos:station:USF.COMPS:ANC:1,2010-03-01T08:24:00Z,28.1930,-82.7890,-1.0,16.36,2 
COMPS,ioos:station:USF.COMPS:ANC:1,2010-03-01T08:30:00Z,28.1930,-82.7890,-1.0,16.34,2 
COMPS,ioos:station:USF.COMPS:ANC:1,2010-03-01T08:36:00Z,28.1930,-82.7890,-1.0,16.34,2 
COMPS,ioos:station:USF.COMPS:ANC:1,2010-03-01T08:42:00Z,28.1930,-82.7890,-1.0,16.3,2 
COMPS,ioos:station:USF.COMPS:ANC:1,2010-03-01T08:48:00Z,28.1930,-82.7890,-1.0,16.24,2 
COMPS,ioos:station:USF.COMPS:ANC:1,2010-03-01T08:54:00Z,28.1930,-82.7890,-1.0,16.24,2 
COMPS,ioos:station:USF.COMPS:ANC:1,2010-03-01T09:00:00Z,28.1930,-82.7890,-1.0,16.19,2 
COMPS,ioos:station:USF.COMPS:ANC:1,2010-03-01T09:06:00Z,28.1930,-82.7890,-1.0,16.17,2 
COMPS,ioos:station:USF.COMPS:ANC:1,2010-03-01T09:12:00Z,28.1930,-82.7890,-1.0,16.13,2 
COMPS,ioos:station:USF.COMPS:ANC:1,2010-03-01T09:18:00Z,28.1930,-82.7890,-1.0,16.07,2 
COMPS,ioos:station:USF.COMPS:ANC:1,2010-03-01T09:24:00Z,28.1930,-82.7890,-1.0,16.06,2 
COMPS,ioos:station:USF.COMPS:ANC:1,2010-03-01T09:30:00Z,28.1930,-82.7890,-1.0,16.02,2 
COMPS,ioos:station:USF.COMPS:ANC:1,2010-03-01T09:36:00Z,28.1930,-82.7890,-1.0,16.0,2 
COMPS,ioos:station:USF.COMPS:ANC:1,2010-03-01T09:42:00Z,28.1930,-82.7890,-1.0,16.01,2 
COMPS,ioos:station:USF.COMPS:ANC:1,2010-03-01T09:48:00Z,28.1930,-82.7890,-1.0,15.99,2 
COMPS,ioos:station:USF.COMPS:ANC:1,2010-03-01T09:54:00Z,28.1930,-82.7890,-1.0,15.96,2 
COMPS,ioos:station:USF.COMPS:ANC:1,2010-03-01T10:00:00Z,28.1930,-82.7890,-1.0,15.92,2 
COMPS,ioos:station:USF.COMPS:ANC:1,2010-03-01T10:06:00Z,28.1930,-82.7890,-1.0,15.9,2 
COMPS,ioos:station:USF.COMPS:ANC:1,2010-03-01T10:12:00Z,28.1930,-82.7890,-1.0,15.87,2 
COMPS,ioos:station:USF.COMPS:ANC:1,2010-03-01T10:18:00Z,28.1930,-82.7890,-1.0,15.84,2 
COMPS,ioos:station:USF.COMPS:ANC:1,2010-03-01T10:24:00Z,28.1930,-82.7890,-1.0,15.82,2 
COMPS,ioos:station:USF.COMPS:ANC:1,2010-03-01T10:30:00Z,28.1930,-82.7890,-1.0,15.8,2 
COMPS,ioos:station:USF.COMPS:ANC:1,2010-03-01T10:36:00Z,28.1930,-82.7890,-1.0,15.8,2 
COMPS,ioos:station:USF.COMPS:ANC:1,2010-03-01T10:42:00Z,28.1930,-82.7890,-1.0,15.8,2 
COMPS,ioos:station:USF.COMPS:ANC:1,2010-03-01T10:48:00Z,28.1930,-82.7890,-1.0,15.8,2 
COMPS,ioos:station:USF.COMPS:ANC:1,2010-03-01T10:54:00Z,28.1930,-82.7890,-1.0,15.77,2 
COMPS,ioos:station:USF.COMPS:ANC:1,2010-03-01T11:00:00Z,28.1930,-82.7890,-1.0,15.76,2 
COMPS,ioos:station:USF.COMPS:ANC:1,2010-03-01T11:06:00Z,28.1930,-82.7890,-1.0,15.75,2 
COMPS,ioos:station:USF.COMPS:ANC:1,2010-03-01T11:12:00Z,28.1930,-82.7890,-1.0,15.74,2 
COMPS,ioos:station:USF.COMPS:ANC:1,2010-03-01T11:18:00Z,28.1930,-82.7890,-1.0,15.73,2 
COMPS,ioos:station:USF.COMPS:ANC:1,2010-03-01T11:24:00Z,28.1930,-82.7890,-1.0,15.73,2 
COMPS,ioos:station:USF.COMPS:ANC:1,2010-03-01T11:30:00Z,28.1930,-82.7890,-1.0,15.74,2 
COMPS,ioos:station:USF.COMPS:ANC:1,2010-03-01T11:36:00Z,28.1930,-82.7890,-1.0,15.74,2 
COMPS,ioos:station:USF.COMPS:ANC:1,2010-03-01T11:42:00Z,28.1930,-82.7890,-1.0,15.75,2 
COMPS,ioos:station:USF.COMPS:ANC:1,2010-03-01T11:48:00Z,28.1930,-82.7890,-1.0,15.77,2 
COMPS,ioos:station:USF.COMPS:ANC:1,2010-03-01T11:54:00Z,28.1930,-82.7890,-1.0,15.78,2 
COMPS,ioos:station:USF.COMPS:ANC:1,2010-03-01T12:00:00Z,28.1930,-82.7890,-1.0,15.8,2 
COMPS,ioos:station:USF.COMPS:ANC:1,2010-03-01T12:06:00Z,28.1930,-82.7890,-1.0,15.82,2 
COMPS,ioos:station:USF.COMPS:ANC:1,2010-03-01T12:12:00Z,28.1930,-82.7890,-1.0,15.84,2 
COMPS,ioos:station:USF.COMPS:ANC:1,2010-03-01T12:18:00Z,28.1930,-82.7890,-1.0,15.85,2 
COMPS,ioos:station:USF.COMPS:ANC:1,2010-03-01T12:24:00Z,28.1930,-82.7890,-1.0,15.88,2 
COMPS,ioos:station:USF.COMPS:ANC:1,2010-03-01T12:30:00Z,28.1930,-82.7890,-1.0,15.9,2 
COMPS,ioos:station:USF.COMPS:ANC:1,2010-03-01T12:36:00Z,28.1930,-82.7890,-1.0,15.92,2 
COMPS,ioos:station:USF.COMPS:ANC:1,2010-03-01T12:42:00Z,28.1930,-82.7890,-1.0,15.96,2 
COMPS,ioos:station:USF.COMPS:ANC:1,2010-03-01T12:48:00Z,28.1930,-82.7890,-1.0,16.0,2 
COMPS,ioos:station:USF.COMPS:ANC:1,2010-03-01T12:54:00Z,28.1930,-82.7890,-1.0,16.02,2 
COMPS,ioos:station:USF.COMPS:ANC:1,2010-03-01T13:00:00Z,28.1930,-82.7890,-1.0,16.03,2 
COMPS,ioos:station:USF.COMPS:ANC:1,2010-03-01T13:06:00Z,28.1930,-82.7890,-1.0,16.07,2 
COMPS,ioos:station:USF.COMPS:ANC:1,2010-03-01T13:12:00Z,28.1930,-82.7890,-1.0,16.11,2 
COMPS,ioos:station:USF.COMPS:ANC:1,2010-03-01T13:18:00Z,28.1930,-82.7890,-1.0,16.13,2 
COMPS,ioos:station:USF.COMPS:ANC:1,2010-03-01T13:24:00Z,28.1930,-82.7890,-1.0,16.17,2 
COMPS,ioos:station:USF.COMPS:ANC:1,2010-03-01T13:30:00Z,28.1930,-82.7890,-1.0,16.26,2 
COMPS,ioos:station:USF.COMPS:ANC:1,2010-03-01T13:36:00Z,28.1930,-82.7890,-1.0,16.29,2 
COMPS,ioos:station:USF.COMPS:ANC:1,2010-03-01T13:42:00Z,28.1930,-82.7890,-1.0,16.31,2 
COMPS,ioos:station:USF.COMPS:ANC:1,2010-03-01T13:48:00Z,28.1930,-82.7890,-1.0,16.35,2 
COMPS,ioos:station:USF.COMPS:ANC:1,2010-03-01T13:54:00Z,28.1930,-82.7890,-1.0,16.35,2 
COMPS,ioos:station:USF.COMPS:ANC:1,2010-03-01T14:00:00Z,28.1930,-82.7890,-1.0,16.34,2 
COMPS,ioos:station:USF.COMPS:ANC:1,2010-03-01T14:06:00Z,28.1930,-82.7890,-1.0,16.33,2 
COMPS,ioos:station:USF.COMPS:ANC:1,2010-03-01T14:12:00Z,28.1930,-82.7890,-1.0,16.3,2 
COMPS,ioos:station:USF.COMPS:ANC:1,2010-03-01T14:18:00Z,28.1930,-82.7890,-1.0,16.27,2 
COMPS,ioos:station:USF.COMPS:ANC:1,2010-03-01T14:24:00Z,28.1930,-82.7890,-1.0,16.24,2 
COMPS,ioos:station:USF.COMPS:ANC:1,2010-03-01T14:30:00Z,28.1930,-82.7890,-1.0,16.22,2 
COMPS,ioos:station:USF.COMPS:ANC:1,2010-03-01T14:36:00Z,28.1930,-82.7890,-1.0,16.21,2 
COMPS,ioos:station:USF.COMPS:ANC:1,2010-03-01T14:42:00Z,28.1930,-82.7890,-1.0,16.2,2 
COMPS,ioos:station:USF.COMPS:ANC:1,2010-03-01T14:48:00Z,28.1930,-82.7890,-1.0,16.2,2 
COMPS,ioos:station:USF.COMPS:ANC:1,2010-03-01T14:54:00Z,28.1930,-82.7890,-1.0,16.19,2 
COMPS,ioos:station:USF.COMPS:ANC:1,2010-03-01T15:00:00Z,28.1930,-82.7890,-1.0,16.17,2 
COMPS,ioos:station:USF.COMPS:ANC:1,2010-03-01T15:06:00Z,28.1930,-82.7890,-1.0,16.14,2 
COMPS,ioos:station:USF.COMPS:ANC:1,2010-03-01T15:12:00Z,28.1930,-82.7890,-1.0,16.08,2 
COMPS,ioos:station:USF.COMPS:ANC:1,2010-03-01T15:18:00Z,28.1930,-82.7890,-1.0,16.0,2 
COMPS,ioos:station:USF.COMPS:ANC:1,2010-03-01T15:24:00Z,28.1930,-82.7890,-1.0,15.92,2 
COMPS,ioos:station:USF.COMPS:ANC:1,2010-03-01T15:30:00Z,28.1930,-82.7890,-1.0,15.82,2 
COMPS,ioos:station:USF.COMPS:ANC:1,2010-03-01T15:36:00Z,28.1930,-82.7890,-1.0,15.79,2 
COMPS,ioos:station:USF.COMPS:ANC:1,2010-03-01T15:42:00Z,28.1930,-82.7890,-1.0,15.83,2 
COMPS,ioos:station:USF.COMPS:ANC:1,2010-03-01T15:48:00Z,28.1930,-82.7890,-1.0,15.8,2 
COMPS,ioos:station:USF.COMPS:ANC:1,2010-03-01T15:54:00Z,28.1930,-82.7890,-1.0,15.78,2 
COMPS,ioos:station:USF.COMPS:ANC:1,2010-03-01T16:00:00Z,28.1930,-82.7890,-1.0,15.76,2 
COMPS,ioos:station:USF.COMPS:ANC:1,2010-03-01T16:06:00Z,28.1930,-82.7890,-1.0,15.75,2 
COMPS,ioos:station:USF.COMPS:ANC:1,2010-03-01T16:12:00Z,28.1930,-82.7890,-1.0,15.7,2 
COMPS,ioos:station:USF.COMPS:ANC:1,2010-03-01T16:18:00Z,28.1930,-82.7890,-1.0,15.62,2 
COMPS,ioos:station:USF.COMPS:ANC:1,2010-03-01T16:24:00Z,28.1930,-82.7890,-1.0,15.54,2 
COMPS,ioos:station:USF.COMPS:ANC:1,2010-03-01T16:30:00Z,28.1930,-82.7890,-1.0,15.57,2 
COMPS,ioos:station:USF.COMPS:ANC:1,2010-03-01T16:36:00Z,28.1930,-82.7890,-1.0,15.6,2 
COMPS,ioos:station:USF.COMPS:ANC:1,2010-03-01T16:42:00Z,28.1930,-82.7890,-1.0,15.57,2 
COMPS,ioos:station:USF.COMPS:ANC:1,2010-03-01T16:48:00Z,28.1930,-82.7890,-1.0,15.57,2 
COMPS,ioos:station:USF.COMPS:ANC:1,2010-03-01T16:54:00Z,28.1930,-82.7890,-1.0,15.53,2 
COMPS,ioos:station:USF.COMPS:ANC:1,2010-03-01T17:00:00Z,28.1930,-82.7890,-1.0,15.59,2 
COMPS,ioos:station:USF.COMPS:ANC:1,2010-03-01T17:06:00Z,28.1930,-82.7890,-1.0,15.7,2 
COMPS,ioos:station:USF.COMPS:ANC:1,2010-03-01T17:12:00Z,28.1930,-82.7890,-1.0,15.79,2 
COMPS,ioos:station:USF.COMPS:ANC:1,2010-03-01T17:18:00Z,28.1930,-82.7890,-1.0,15.8,2 
COMPS,ioos:station:USF.COMPS:ANC:1,2010-03-01T17:24:00Z,28.1930,-82.7890,-1.0,15.88,2 
COMPS,ioos:station:USF.COMPS:ANC:1,2010-03-01T17:30:00Z,28.1930,-82.7890,-1.0,15.92,2 
COMPS,ioos:station:USF.COMPS:ANC:1,2010-03-01T17:36:00Z,28.1930,-82.7890,-1.0,15.92,2 
COMPS,ioos:station:USF.COMPS:ANC:1,2010-03-01T17:42:00Z,28.1930,-82.7890,-1.0,15.95,2 
COMPS,ioos:station:USF.COMPS:ANC:1,2010-03-01T17:48:00Z,28.1930,-82.7890,-1.0,16.0,2 
COMPS,ioos:station:USF.COMPS:ANC:1,2010-03-01T17:54:00Z,28.1930,-82.7890,-1.0,16.0,2 
COMPS,ioos:station:USF.COMPS:ANC:1,2010-03-01T18:00:00Z,28.1930,-82.7890,-1.0,16.01,2 
COMPS,ioos:station:USF.COMPS:ANC:1,2010-03-01T18:06:00Z,28.1930,-82.7890,-1.0,16.03,2 
COMPS,ioos:station:USF.COMPS:ANC:1,2010-03-01T18:12:00Z,28.1930,-82.7890,-1.0,16.05,2 
COMPS,ioos:station:USF.COMPS:ANC:1,2010-03-01T18:18:00Z,28.1930,-82.7890,-1.0,16.07,2 
COMPS,ioos:station:USF.COMPS:ANC:1,2010-03-01T18:24:00Z,28.1930,-82.7890,-1.0,16.09,2 
COMPS,ioos:station:USF.COMPS:ANC:1,2010-03-01T18:30:00Z,28.1930,-82.7890,-1.0,16.12,2 
COMPS,ioos:station:USF.COMPS:ANC:1,2010-03-01T18:36:00Z,28.1930,-82.7890,-1.0,16.16,2 
COMPS,ioos:station:USF.COMPS:ANC:1,2010-03-01T18:42:00Z,28.1930,-82.7890,-1.0,16.19,2 
COMPS,ioos:station:USF.COMPS:ANC:1,2010-03-01T18:48:00Z,28.1930,-82.7890,-1.0,16.23,2 
COMPS,ioos:station:USF.COMPS:ANC:1,2010-03-01T18:54:00Z,28.1930,-82.7890,-1.0,16.26,2 
COMPS,ioos:station:USF.COMPS:ANC:1,2010-03-01T19:00:00Z,28.1930,-82.7890,-1.0,16.28,2 
COMPS,ioos:station:USF.COMPS:ANC:1,2010-03-01T19:06:00Z,28.1930,-82.7890,-1.0,16.3,2 
COMPS,ioos:station:USF.COMPS:ANC:1,2010-03-01T19:12:00Z,28.1930,-82.7890,-1.0,16.35,2 
COMPS,ioos:station:USF.COMPS:ANC:1,2010-03-01T19:18:00Z,28.1930,-82.7890,-1.0,16.38,2 
COMPS,ioos:station:USF.COMPS:ANC:1,2010-03-01T19:24:00Z,28.1930,-82.7890,-1.0,16.41,2 
COMPS,ioos:station:USF.COMPS:ANC:1,2010-03-01T19:30:00Z,28.1930,-82.7890,-1.0,16.43,2 
COMPS,ioos:station:USF.COMPS:ANC:1,2010-03-01T19:36:00Z,28.1930,-82.7890,-1.0,16.44,2 
COMPS,ioos:station:USF.COMPS:ANC:1,2010-03-01T19:42:00Z,28.1930,-82.7890,-1.0,16.5,2 
COMPS,ioos:station:USF.COMPS:ANC:1,2010-03-01T19:48:00Z,28.1930,-82.7890,-1.0,16.52,2 
COMPS,ioos:station:USF.COMPS:ANC:1,2010-03-01T19:54:00Z,28.1930,-82.7890,-1.0,16.54,2 
COMPS,ioos:station:USF.COMPS:ANC:1,2010-03-01T20:00:00Z,28.1930,-82.7890,-1.0,16.56,2 
COMPS,ioos:station:USF.COMPS:ANC:1,2010-03-01T20:06:00Z,28.1930,-82.7890,-1.0,16.61,2 
COMPS,ioos:station:USF.COMPS:ANC:1,2010-03-01T20:12:00Z,28.1930,-82.7890,-1.0,16.64,2 
COMPS,ioos:station:USF.COMPS:ANC:1,2010-03-01T20:18:00Z,28.1930,-82.7890,-1.0,16.64,2 
COMPS,ioos:station:USF.COMPS:ANC:1,2010-03-01T20:24:00Z,28.1930,-82.7890,-1.0,16.65,2 
COMPS,ioos:station:USF.COMPS:ANC:1,2010-03-01T20:30:00Z,28.1930,-82.7890,-1.0,16.71,2 
COMPS,ioos:station:USF.COMPS:ANC:1,2010-03-01T20:36:00Z,28.1930,-82.7890,-1.0,16.79,2 
COMPS,ioos:station:USF.COMPS:ANC:1,2010-03-01T20:42:00Z,28.1930,-82.7890,-1.0,16.83,2 
COMPS,ioos:station:USF.COMPS:ANC:1,2010-03-01T20:48:00Z,28.1930,-82.7890,-1.0,16.85,2 
COMPS,ioos:station:USF.COMPS:ANC:1,2010-03-01T20:54:00Z,28.1930,-82.7890,-1.0,16.84,2 
COMPS,ioos:station:USF.COMPS:ANC:1,2010-03-01T21:00:00Z,28.1930,-82.7890,-1.0,16.88,2 
COMPS,ioos:station:USF.COMPS:ANC:1,2010-03-01T21:06:00Z,28.1930,-82.7890,-1.0,16.93,2 
COMPS,ioos:station:USF.COMPS:ANC:1,2010-03-01T21:12:00Z,28.1930,-82.7890,-1.0,16.98,2 
COMPS,ioos:station:USF.COMPS:ANC:1,2010-03-01T21:18:00Z,28.1930,-82.7890,-1.0,16.98,2 
COMPS,ioos:station:USF.COMPS:ANC:1,2010-03-01T21:24:00Z,28.1930,-82.7890,-1.0,17.01,2 
COMPS,ioos:station:USF.COMPS:ANC:1,2010-03-01T21:30:00Z,28.1930,-82.7890,-1.0,17.04,2 
COMPS,ioos:station:USF.COMPS:ANC:1,2010-03-01T21:36:00Z,28.1930,-82.7890,-1.0,17.08,2 
COMPS,ioos:station:USF.COMPS:ANC:1,2010-03-01T21:42:00Z,28.1930,-82.7890,-1.0,17.18,2 
COMPS,ioos:station:USF.COMPS:ANC:1,2010-03-01T21:48:00Z,28.1930,-82.7890,-1.0,17.2,2 
COMPS,ioos:station:USF.COMPS:ANC:1,2010-03-01T21:54:00Z,28.1930,-82.7890,-1.0,17.24,2 
COMPS,ioos:station:USF.COMPS:ANC:1,2010-03-01T22:00:00Z,28.1930,-82.7890,-1.0,17.29,2 
COMPS,ioos:station:USF.COMPS:ANC:1,2010-03-01T22:06:00Z,28.1930,-82.7890,-1.0,17.28,2 
COMPS,ioos:station:USF.COMPS:ANC:1,2010-03-01T22:12:00Z,28.1930,-82.7890,-1.0,17.27,2 
COMPS,ioos:station:USF.COMPS:ANC:1,2010-03-01T22:18:00Z,28.1930,-82.7890,-1.0,17.27,2 
COMPS,ioos:station:USF.COMPS:ANC:1,2010-03-01T22:24:00Z,28.1930,-82.7890,-1.0,17.35,2 
COMPS,ioos:station:USF.COMPS:ANC:1,2010-03-01T22:30:00Z,28.1930,-82.7890,-1.0,17.41,2 
COMPS,ioos:station:USF.COMPS:ANC:1,2010-03-01T22:36:00Z,28.1930,-82.7890,-1.0,17.45,2 
COMPS,ioos:station:USF.COMPS:ANC:1,2010-03-01T22:42:00Z,28.1930,-82.7890,-1.0,17.45,2 
COMPS,ioos:station:USF.COMPS:ANC:1,2010-03-01T22:48:00Z,28.1930,-82.7890,-1.0,17.46,2 
COMPS,ioos:station:USF.COMPS:ANC:1,2010-03-01T22:54:00Z,28.1930,-82.7890,-1.0,17.45,2 
COMPS,ioos:station:USF.COMPS:ANC:1,2010-03-01T23:00:00Z,28.1930,-82.7890,-1.0,17.44,2 
COMPS,ioos:station:USF.COMPS:ANC:1,2010-03-01T23:06:00Z,28.1930,-82.7890,-1.0,17.42,2 
COMPS,ioos:station:USF.COMPS:ANC:1,2010-03-01T23:12:00Z,28.1930,-82.7890,-1.0,17.41,2 
COMPS,ioos:station:USF.COMPS:ANC:1,2010-03-01T23:18:00Z,28.1930,-82.7890,-1.0,17.43,2 
COMPS,ioos:station:USF.COMPS:ANC:1,2010-03-01T23:24:00Z,28.1930,-82.7890,-1.0,17.43,2 
COMPS,ioos:station:USF.COMPS:ANC:1,2010-03-01T23:30:00Z,28.1930,-82.7890,-1.0,17.4,2 
COMPS,ioos:station:USF.COMPS:ANC:1,2010-03-01T23:36:00Z,28.1930,-82.7890,-1.0,17.37,2 
COMPS,ioos:station:USF.COMPS:ANC:1,2010-03-01T23:42:00Z,28.1930,-82.7890,-1.0,17.34,2 
COMPS,ioos:station:USF.COMPS:ANC:1,2010-03-01T23:48:00Z,28.1930,-82.7890,-1.0,17.3,2 
COMPS,ioos:station:USF.COMPS:ANC:1,2010-03-01T23:54:00Z,28.1930,-82.7890,-1.0,17.28,2 
COMPS,ioos:station:USF.COMPS:ANC:1,2010-03-02T00:00:00Z,28.1930,-82.7890,-1.0,17.26,2 
COMPS,ioos:station:USF.COMPS:ANC:1,2010-03-02T00:06:00Z,28.1930,-82.7890,-1.0,17.25,2 
COMPS,ioos:station:USF.COMPS:ANC:1,2010-03-02T00:12:00Z,28.1930,-82.7890,-1.0,17.25,2 
COMPS,ioos:station:USF.COMPS:ANC:1,2010-03-02T00:18:00Z,28.1930,-82.7890,-1.0,17.23,2 
COMPS,ioos:station:USF.COMPS:ANC:1,2010-03-02T00:24:00Z,28.1930,-82.7890,-1.0,17.21,2 
COMPS,ioos:station:USF.COMPS:ANC:1,2010-03-02T00:30:00Z,28.1930,-82.7890,-1.0,17.19,2 
COMPS,ioos:station:USF.COMPS:ANC:1,2010-03-02T00:36:00Z,28.1930,-82.7890,-1.0,17.18,2 
COMPS,ioos:station:USF.COMPS:ANC:1,2010-03-02T00:42:00Z,28.1930,-82.7890,-1.0,17.18,2 
COMPS,ioos:station:USF.COMPS:ANC:1,2010-03-02T00:48:00Z,28.1930,-82.7890,-1.0,17.18,2 
COMPS,ioos:station:USF.COMPS:ANC:1,2010-03-02T00:54:00Z,28.1930,-82.7890,-1.0,17.2,2 
COMPS,ioos:station:USF.COMPS:ANC:1,2010-03-02T01:00:00Z,28.1930,-82.7890,-1.0,17.21,2 
COMPS,ioos:station:USF.COMPS:ANC:1,2010-03-02T01:06:00Z,28.1930,-82.7890,-1.0,17.22,2 
COMPS,ioos:station:USF.COMPS:ANC:1,2010-03-02T01:12:00Z,28.1930,-82.7890,-1.0,17.24,2 
COMPS,ioos:station:USF.COMPS:ANC:1,2010-03-02T01:18:00Z,28.1930,-82.7890,-1.0,17.25,2 
COMPS,ioos:station:USF.COMPS:ANC:1,2010-03-02T01:24:00Z,28.1930,-82.7890,-1.0,17.27,2 
COMPS,ioos:station:USF.COMPS:ANC:1,2010-03-02T01:30:00Z,28.1930,-82.7890,-1.0,17.33,2 
COMPS,ioos:station:USF.COMPS:ANC:1,2010-03-02T01:36:00Z,28.1930,-82.7890,-1.0,17.38,2 
COMPS,ioos:station:USF.COMPS:ANC:1,2010-03-02T01:42:00Z,28.1930,-82.7890,-1.0,17.46,2 
COMPS,ioos:station:USF.COMPS:ANC:1,2010-03-02T01:48:00Z,28.1930,-82.7890,-1.0,17.57,2 
COMPS,ioos:station:USF.COMPS:ANC:1,2010-03-02T01:54:00Z,28.1930,-82.7890,-1.0,17.63,2 
COMPS,ioos:station:USF.COMPS:ANC:1,2010-03-02T02:00:00Z,28.1930,-82.7890,-1.0,17.66,2 
COMPS,ioos:station:USF.COMPS:ANC:1,2010-03-02T02:06:00Z,28.1930,-82.7890,-1.0,17.68,2 
COMPS,ioos:station:USF.COMPS:ANC:1,2010-03-02T02:12:00Z,28.1930,-82.7890,-1.0,17.69,2 
COMPS,ioos:station:USF.COMPS:ANC:1,2010-03-02T02:18:00Z,28.1930,-82.7890,-1.0,17.71,2 
COMPS,ioos:station:USF.COMPS:ANC:1,2010-03-02T02:24:00Z,28.1930,-82.7890,-1.0,17.72,2 
COMPS,ioos:station:USF.COMPS:ANC:1,2010-03-02T02:30:00Z,28.1930,-82.7890,-1.0,17.72,2 
COMPS,ioos:station:USF.COMPS:ANC:1,2010-03-02T02:36:00Z,28.1930,-82.7890,-1.0,17.72,2 
COMPS,ioos:station:USF.COMPS:ANC:1,2010-03-02T02:42:00Z,28.1930,-82.7890,-1.0,17.71,2 
COMPS,ioos:station:USF.COMPS:ANC:1,2010-03-02T02:48:00Z,28.1930,-82.7890,-1.0,17.69,2 
COMPS,ioos:station:USF.COMPS:ANC:1,2010-03-02T02:54:00Z,28.1930,-82.7890,-1.0,17.65,2 
COMPS,ioos:station:USF.COMPS:ANC:1,2010-03-02T03:00:00Z,28.1930,-82.7890,-1.0,17.62,2 
COMPS,ioos:station:USF.COMPS:ANC:1,2010-03-02T03:06:00Z,28.1930,-82.7890,-1.0,17.6,2 
COMPS,ioos:station:USF.COMPS:ANC:1,2010-03-02T03:12:00Z,28.1930,-82.7890,-1.0,17.59,2 
COMPS,ioos:station:USF.COMPS:ANC:1,2010-03-02T03:18:00Z,28.1930,-82.7890,-1.0,17.59,2 
COMPS,ioos:station:USF.COMPS:ANC:1,2010-03-02T03:24:00Z,28.1930,-82.7890,-1.0,17.58,2 